Regional Weather Roundup
Issued by NWS

Home | Current Version | Previous Version | Text Only | Print | Product List | Glossary Off
Versions: 1 2 3 4 5 6 7 8 9 10 11 12 13 14 15 16 17 18 19 20 21 22 23 24 25 26 27 28 29 30 31 32 33 34 35 36 37 38 39 40 41 42 43 44 45 46 47 48 49 50

000
ASUS43 KMKX 241723
RWRWI

WISCONSIN REGIONAL WEATHER ROUNDUP
NATIONAL WEATHER SERVICE MILWAUKEE/SULLIVAN WI
1200 PM CDT SUN MAY 24 2015

NOTE: "FAIR" INDICATES FEW OR NO CLOUDS BELOW 12,000 FEET WITH NO
SIGNIFICANT WEATHER AND/OR OBSTRUCTIONS TO VISIBILITY.

WIZ001-002-006>008-014>016-023>028-241800-
NORTHWEST WISCONSIN

CITY           SKY/WX    TMP DP  RH WIND       PRES   REMARKS
SUPERIOR ARPT  CLOUDY    65  45  48 E3        30.07F
ASHLAND        CLOUDY    70  52  52 N8        30.08F
HAYWARD        CLOUDY    68  49  50 E5        30.07F
SIREN          CLOUDY    65  52  62 CALM      30.05F
CUMBERLAND     CLOUDY    64  48  55 SE6       30.06F
RICE LAKE      CLOUDY    69  47  46 SE8       30.08F
CHETEK         CLOUDY    67  52  59 SE10      30.07S
LADYSMITH      CLOUDY    70  49  47 SE9       30.09F
EAU CLAIRE     NOT AVBL
MENOMONIE      LGT RAIN  65  53  64 SE15      30.07S
NEW RICHMOND   LGT RAIN  65  51  59 S9        30.05S
OSCEOLA        CLOUDY    68  53  58 E6        30.06F
$$

WIZ003>005-009-010-017-018-241800-
NORTH CENTRAL WISCONSIN

CITY           SKY/WX    TMP DP  RH WIND       PRES   REMARKS
MANITOWISH WTR CLOUDY    70  46  42 S3        30.11F
ARBOR VITAE    CLOUDY    72  45  37 S10       30.11F
WOODRUFF       CLOUDY    72  45  37 S10       30.11F
RHINELANDER    CLOUDY    73  45  36 S8G17     30.12F
EAGLE RIVER    CLOUDY    73  39  29 SE6       30.12F
LAND O LAKES   CLOUDY    74  40  29 S9        30.12F
PHILLIPS       CLOUDY    70  49  47 SE6       30.10F
TOMAHAWK       CLOUDY    71  48  43 S3        30.12F
MEDFORD        CLOUDY    67  49  54 S15       30.11S
MERRILL        CLOUDY    71  50  47 S6        30.12S
$$

WIZ029-030-035-036-043>047-241800-
CENTRAL WISCONSIN

CITY           SKY/WX    TMP DP  RH WIND       PRES   REMARKS
WAUSAU         CLOUDY    67  51  56 S10       30.11R
MOSINEE        LGT RAIN  63  54  72 S13G21    30.15R
MARSHFIELD     LGT RAIN  61  55  81 S17       30.13S
STEVENS POINT  LGT RAIN  62  53  72 S8        30.15R
WAUPACA        CLOUDY    67  55  65 S10       30.15S
WAUTOMA        NOT AVBL
WISC RAPIDS    LGT RAIN  60  55  83 S7        30.15F
CAMP DOUGLAS   NOT AVBL
$$

WIZ011>013-019>022-031-037>040-048>050-241800-
NORTHEAST WISCONSIN

CITY           SKY/WX    TMP DP  RH WIND       PRES   REMARKS
ANTIGO         CLOUDY    68  51  53 SE8       30.13F
SHAWANO        CLOUDY    72  51  47 S5        30.14R
OCONTO         CLOUDY    69  51  52 S3        30.12F
STURGEON BAY   CLOUDY    63  45  51 SE8       30.16F
GREEN BAY      CLOUDY    71  52  50 S16       30.15R
MANITOWOC      NOT AVBL
APPLETON       CLOUDY    64  50  59 S14G23    30.16R
CLINTONVILLE   CLOUDY    68  50  52 SW10      30.14S
OSHKOSH        LGT RAIN  61  55  81 SW12      30.17S
$$

WIZ032>034-041-042-053>061-241800-
SOUTHWEST WISCONSIN

CITY           SKY/WX    TMP DP  RH WIND       PRES   REMARKS
LA CROSSE      LGT RAIN  61  57  87 E9        30.06F
SPARTA         LGT RAIN  59  57  92 E8        30.10F
VIROQUA        CLOUDY    57  57 100 SE13      30.08F
BOSCOBEL       RAIN      60  57  89 E6        30.07F FOG
PRAIRIE DU CHI LGT RAIN  59  56  89 E7        30.05F
PLATTEVILLE    CLOUDY    58  55  90 E16G22    30.07F
$$

WIZ056-057-062-063-064-067-068-241800-
SOUTH CENTRAL WISCONSIN

CITY           SKY/WX    TMP DP  RH WIND       PRES   REMARKS
REEDSBURG      RAIN      57  55  94 E3        30.11F
BARABOO/DELLS  LGT RAIN  58  54  87 SE6       30.13F
LONE ROCK      NOT AVBL
MINERAL POINT  LGT RAIN  59  55  88 E9G16     30.09F
MADISON        LGT RAIN  60  56  86 E9        30.13F
MIDDLETON      CLOUDY    61  57  87 E7        30.13F
WATERTOWN      RAIN      61  60  98 SE5       30.16S
MONROE         DRIZZLE   61  57  88 E8        30.10F
JANESVILLE     LGT RAIN  64  57  77 E8        30.11F
$$

WIZ051-052-058>065-066-070>072-241800-
SOUTHEAST WISCONSIN

CITY           SKY/WX    TMP DP  RH WIND       PRES   REMARKS
MILWAUKEE      LGT RAIN  64  55  72 S6        30.18S
WAUKESHA       LGT RAIN  61  55  82 CALM      30.19S FOG
MILWAUKEE/TIMM LGT RAIN  64  54  68 CALM      30.19S
RACINE         CLOUDY    65  56  72 NE3       30.18F
BURLINGTON     LGT RAIN  62  56  80 NE5       30.16F
KENOSHA        CLOUDY    67  55  65 E7        30.16F
FOND DU LAC    LGT RAIN  62  56  80 S6        30.17F
SHEBOYGAN      LGT RAIN  64  53  67 SE5       30.18F
WEST BEND      RAIN      61  54  77 CALM      30.18F
JUNEAU         LGT RAIN  61  56  83 SE6       30.18F
$$

LSZ147-162-241800-
LAKE SUPERIOR

STATION/POSITION TIME  TEMP    WIND        PRES    WAVE
                       AIR SEA DIR/SP/G            HT/PER
                 (UTC) (F)     (DEG/KT/KT) (MB)    (FT/S)
W MID LAKE BUOY  1550   44 37  210/  8/ 10   N/A     1
DEVILS ISLAND    1600   66      CALM  /  2   N/A
PORT WING        1600   56     300/  3/  3   N/A
SAXON HARBOR     1600   60        CALM       N/A
$$

LMZ867-665-643>646-241800-
LAKE MICHIGAN

STATION/POSITION TIME  TEMP    WIND        PRES    WAVE
                       AIR SEA DIR/SP/G            HT/PER
                 (UTC) (F)     (DEG/KT/KT) (MB)    (FT/S)
CHAMBERS ISLAND  1600   69     340/  2/  3   N/A
N MID LAKE BUOY  1550   44 36  200/  4/  4   N/A     0
NORTHPORT PIER   1600   50     140/  7/ 10   N/A
SISTER BAY       1617   72        CALM       N/A
KEWAUNEE LAKESHO 1600   49     170/ 11/ 13   N/A
SHEBOYGAN LAKESH 1600   62     210/ 15/ 17   N/A
PORT WASHINGTON  1600   53     150/  2/  3   N/A
ATWATER BUOY     1600   50 46  100/  4/  4   N/A
MILWAUKEE LAKESH 1600   53      10/  4/  4   N/A
S MID LAKE BUOY  1550   47 38  150/  4/  6   N/A     0
$$

TC  - TEMPERATURE IN CELSIUS
VSB - VISIBILITY IN STATUTE MILES
WCI - WIND CHILL INDEX
HX  - HEAT INDEX




USA.gov is the U.S. government's official web portal to all federal, state and local government web resources and services.